Regional Weather Roundup
Issued by NWS

Home | Current Version | Previous Version | Text Only | Print | Product List | Glossary Off
Versions: 1 2 3 4 5 6 7 8 9 10 11 12 13 14 15 16 17 18 19 20 21 22 23 24 25 26 27 28 29 30 31 32 33 34 35 36 37 38 39 40 41 42 43 44 45 46 47 48 49 50

000
ASUS45 KABQ 131810
RWRNM
WEATHER ROUNDUP FOR NEW MEXICO
NATIONAL WEATHER SERVICE ALBUQUERQUE NM
1200 PM MDT SUN JUL 13 2014

NOTE: "FAIR" MEANS FEW OR NO CLOUDS BELOW 12,000 FEET AGL WITH NO
       SIGNIFICANT WEATHER OR OBSTRUCTIONS TO VISION.

      THIS PRODUCT IS RELEASED AS TWO VERSIONS.  ONE VERSION NEAR
      THE TOP OF THE HOUR CONTAINING PRELIMINARY DATA FROM ALBUQUERQUE
      AND OTHER STATIONS.  A FINAL VERSION WITH ADDITIONAL DATA IS
      ISSUED ABOUT 10 MINUTES AFTER THE HOUR.

NMZ501-503-504-510>518-131900-
NORTHWEST PLATEAU/NORTHCENTRAL MOUNTAINS

CITY           SKY/WX    TMP DP  RH WIND       PRES   REMARKS
FARMINGTON     SUNNY     87  49  26 E10       30.26F
6HR MIN TEMP:  66; 6HR MAX TEMP:  87;

LOS ALAMOS     CLOUDY    71  51  49 CALM      30.45S
SANTA FE       CLOUDY    82  48  30 S13       30.36F
6HR MIN TEMP:  58; 6HR MAX TEMP:  82;

TAOS             N/A    N/A N/A N/A MISG        N/A
ANGEL FIRE     MOCLDY    70  52  52 SE12      30.52F

$$
NMZ402-403-502-505>509-131900-
WESTCENTRAL MOUNTAINS/SOUTHWEST MOUNTAINS

CITY           SKY/WX    TMP DP  RH WIND       PRES   REMARKS
GALLUP         MOSUNNY   83  51  33 S6        30.32F
6HR MIN TEMP:  57; 6HR MAX TEMP:  83;

GRANTS         SUNNY     79  50  36 SE16G22   30.38S
SILVER CITY    MOSUNNY   81  52  36 SE15G22   30.29F

$$
NMZ407-409-411-412-131900-
SOUTHERN DESERTS

CITY           SKY/WX    TMP DP  RH WIND       PRES   REMARKS
LORDSBURG      FAIR      86  54  32 E14G23    30.18F
DEMING         SUNNY     84  55  36 E10       30.19F
6HR MIN TEMP:  68; 6HR MAX TEMP:  85;

LAS CRUCES     MOSUNNY   85  54  33 SE3       30.22F
HOLLOMAN AFB   MOSUNNY   87  57  36 W5        30.18F
ALAMOGORDO     MOSUNNY   84  55  37 W8        30.21F
T OR C         MOSUNNY   85  55  35 MISG      30.24F
6HR MIN TEMP:  68; 6HR MAX TEMP:  85;


$$
NMZ519>523-131900-
CENTRAL VALLEYS/CENTRAL HIGHLANDS

CITY           SKY/WX    TMP DP  RH WIND       PRES   REMARKS
ALBUQUERQUE    MOSUNNY   84  54  35 S10       30.29F
6HR MIN TEMP:  71; 6HR MAX TEMP:  84;

DOUBLE EAGLE   PTSUNNY   81  54  39 SE7       30.33F
MORIARTY ARPT  CLOUDY    80  53  38 S9G18     30.37F
6HR MIN TEMP:  56; 6HR MAX TEMP:  80;

CLINES CORNERS PTSUNNY   75  53  46 E17       30.42S
6HR MIN TEMP:  61; 6HR MAX TEMP:  75;

BELEN          FAIR      83  53  35 E8        30.29S
6HR MIN TEMP:  64; 6HR MAX TEMP:  83;

SOCORRO        FAIR      86  52  31 SE5       30.25F
6HR MIN TEMP:  67; 6HR MAX TEMP:  86;


$$
NMZ524>526-539-540-131900-
SOUTHCENTRAL MOUNTAINS

CITY           SKY/WX    TMP DP  RH WIND       PRES   REMARKS
RUIDOSO        MOSUNNY   77  50  38 SE14G21   30.41F

$$
NMZ527>531-131900-
NORTHEAST HIGHLANDS/NORTHEAST PLAINS

CITY           SKY/WX    TMP DP  RH WIND       PRES   REMARKS
LAS VEGAS      PTSUNNY   74  53  48 VRB3      30.42F
6HR MIN TEMP:  55; 6HR MAX TEMP:  74;

RATON          CLOUDY    75  54  47 S6        30.38F
6HR MIN TEMP:  61; 6HR MAX TEMP:  77; 6HR PCP:  0.02;

CLAYTON        PTSUNNY   79  54  41 VRB3      30.31F
6HR MIN TEMP:  65; 6HR MAX TEMP:  80;


$$
NMZ532>537-131900-
EASTCENTRAL PLAINS

CITY           SKY/WX    TMP DP  RH WIND       PRES   REMARKS
TUCUMCARI      SUNNY     85  59  41 SE5       30.23F
6HR MIN TEMP:  73; 6HR MAX TEMP:  86;

CANNON AFB     SUNNY     82  61  48 VRB5      30.26F
6HR MIN TEMP:  68; 6HR MAX TEMP:  83;

CLOVIS AIRPORT NOT AVBL

$$
NMZ028-029-538-131900-
SOUTHEAST PLAINS

CITY           SKY/WX    TMP DP  RH WIND       PRES   REMARKS
ROSWELL        SUNNY     87  60  40 VRB6      30.20S
6HR MIN TEMP:  66; 6HR MAX TEMP:  87;

ARTESIA        SUNNY     84  59  42 SE6       30.19F
CARLSBAD       SUNNY     88  59  37 VRB6      30.16F
6HR MIN TEMP:  68; 6HR MAX TEMP:  88;

HOBBS          SUNNY     86  54  32 SE12      30.21F


$$



USA.gov is the U.S. government's official web portal to all federal, state and local government web resources and services.